Terminal Aerodrome Forecast
Issued by NWS

Home | Current Version | Previous Version | Text Only | Print | Product List | Glossary On
Versions: 1 2 3 4 5 6 7 8 9 10 11 12 13 14 15 16 17 18 19 20 21 22 23 24 25 26 27 28 29 30 31 32 33 34 35 36 37 38 39 40 41 42 43 44 45 46 47 48 49 50
000
FTUS46 KPQR 200556 CCA
TAFONP
TAF COR
KONP 200556Z 2006/2106 21010KT 5SM -RADZ BR BKN005 OVC015
     FM201100 21007KT P6SM VCSH SCT008 BKN035
     FM201500 20007KT P6SM SCT025 BKN045
      TEMPO 2015/2019 -SHRA BKN025 BKN045
     FM201900 20010KT P6SM -SHRA BKN035 BKN050=

USA.gov is the U.S. government's official web portal to all federal, state and local government web resources and services.